Weather observations for the past three days for
Philadelphia, Philadelphia International Airport
Imperial (Metric)
Date Time (edt) Wind (mph) Vis. (mi.) Weather Sky Cond. Temperature (ºF) Relative Humidity Wind Chill (°F) Heat Index (°F) Pressure Precipitation (in)
Air Dwpt 6 hour altimeter (in) sea level (mb) 1 hr 3 hr 6 hr
Max. Min.
25 14:54 NW 14 G 21 10.00 Mostly Cloudy FEW035 BKN050 BKN080 BKN260 84 64 51% 85 30.04 1017.2
25 13:54 W 8 10.00 Mostly Cloudy FEW025 BKN055 BKN090 BKN260 84 66.9 84 77 57% 87 30.06 1017.8
25 12:54 W 7 10.00 Overcast FEW025 SCT050 SCT090 OVC260 82.9 66 57% 85 30.07 1018.3
25 11:54 NW 9 10.00 Overcast FEW015 SCT055 SCT090 OVC260 81 68 65% 84 30.09 1018.7
25 10:54 W 6 10.00 Overcast FEW010 SCT110 BKN220 OVC260 80.1 68 67% 83 30.09 1018.9
25 09:54 Vrbl 5 10.00 Overcast FEW010 SCT110 SCT150 OVC210 79 72 79% 82 30.08 1018.6
25 08:54 W 6 10.00 Overcast FEW010 SCT110 BKN140 OVC180 78.1 72 82% 80 30.07 1018.2
25 07:54 W 5 10.00 Overcast FEW010 SCT110 BKN140 OVC180 77 72 77 75.9 85% 78 30.07 1018.0
25 06:54 W 7 10.00 Overcast FEW010 FEW100 BKN130 OVC180 77 73 88% 78 30.06 1017.9
25 05:54 SW 7 10.00 Light Rain FEW010 FEW100 BKN140 OVC200 75.9 73.9 94% 75 30.06 1017.8
25 04:54 S 7 10.00 Overcast OVC200 75.9 73.9 94% 75 30.06 1017.7
25 03:54 SW 6 10.00 Mostly Cloudy FEW009 BKN180 BKN230 75.9 73 91% 76 30.06 1017.9
25 02:54 SW 5 10.00 Overcast OVC250 77 73 88% 78 30.06 1017.9
25 01:54 S 7 10.00 Overcast SCT190 OVC250 75.9 73.9 87.1 75.9 94% 75 30.08 1018.4
25 00:54 SW 5 10.00 Overcast BKN160 OVC220 77 73 88% 78 30.08 1018.5
24 23:54 SW 8 10.00 Overcast BKN130 OVC200 77 73.9 90% 78 30.08 1018.7
24 22:54 SW 6 10.00 Mostly Cloudy FEW023 SCT038 BKN075 BKN150 78.1 73.9 87% 81 30.1 1019.0
24 21:54 SW 6 10.00 Overcast FEW085 BKN180 OVC210 78.1 72 82% 80 30.1 1019.2
24 20:54 SW 7 10.00 Mostly Cloudy FEW015 SCT055 BKN130 BKN180 BKN280 80.1 73.9 82% 85 30.08 1018.6
24 19:54 SW 8 10.00 Mostly Cloudy FEW025 SCT055 BKN130 BKN190 BKN280 80.1 73 82 75 79% 84 30.07 1018.2
24 18:54 S 8 10.00 Mostly Cloudy FEW020 BKN050 BKN120 BKN180 BKN260 81 73 77% 86 30.05 1017.7
24 17:54 S 8 10.00 Mostly Cloudy FEW022 BKN050 BKN110 BKN210 BKN260 81 73 77% 86 30.06 1017.9
24 16:54 S 5 10.00 Mostly Cloudy SCT022 BKN045 BKN100 BKN190 BKN260 81 72 74% 85 30.08 1018.5
24 15:54 E 9 10.00 Mostly Cloudy SCT020 BKN050 BKN120 BKN260 81 73 77% 86 30.1 1019.1
24 14:54 E 7 10.00 Mostly Cloudy SCT027 SCT050 BKN100 BKN260 79 71.1 77% 82 30.1 1019.3
24 13:54 E 10 9.00 Light Rain FEW015 BKN027 BKN040 OVC260 75 71.1 82 73.9 88% 75 30.12 1019.7 0.22 0.22
24 12:54 NE 5 6.00 Light Rain BKN022 BKN039 BKN060 OVC130 77 71.1 82% 79 30.12 1019.9
24 11:54 S 5 10.00 Overcast SCT015 BKN040 OVC130 82 73 74% 87 30.1 1019.3
24 10:54 S 5 10.00 Overcast SCT015 SCT045 OVC130 81 73.9 79% 86 30.11 1019.4
24 09:54 Calm 10.00 Overcast SCT015 SCT045 OVC130 79 73.9 85% 83 30.1 1019.3
24 08:54 SE 5 10.00 Overcast SCT015 SCT080 OVC120 78.1 75 90% 81 30.1 1019.2
24 07:54 SE 3 10.00 Overcast SCT012 SCT080 OVC120 78.1 75 78.1 75.9 90% 81 30.1 1019.1
24 06:54 Calm 10.00 Overcast BKN011 BKN035 OVC100 77 73.9 90% 78 30.1 1019.0
24 05:54 Calm 10.00 Overcast FEW008 SCT035 BKN095 OVC140 75.9 73 91% 76 30.09 1018.8
24 04:54 SW 3 10.00 Overcast SCT015 BKN100 OVC150 77 73 88% 78 30.1 1019.1
24 03:54 SE 3 10.00 Overcast FEW110 BKN150 OVC190 77 73 88% 78 30.08 1018.6
24 02:54 S 5 10.00 Overcast BKN140 OVC190 77 72 85% 78 30.09 1018.7
24 01:54 SW 5 10.00 Light Rain BKN110 OVC190 78.1 72 82.9 78.1 82% 80 30.1 1019.2
24 00:54 S 8 10.00 Overcast SCT110 BKN150 OVC250 78.1 71.1 79% 80 30.11 1019.4
23 23:54 S 3 10.00 Overcast SCT150 BKN200 OVC250 79 69.1 72% 82 30.11 1019.4
23 22:54 W 5 10.00 Mostly Cloudy BKN200 BKN250 81 68 65% 84 30.08 1018.6
23 21:54 SW 7 10.00 Mostly Cloudy FEW045 FEW130 BKN210 BKN260 81 68 65% 84 30.09 1018.9
23 20:54 S 5 10.00 Mostly Cloudy FEW045 FEW130 BKN210 BKN260 81 68 65% 84 30.09 1018.7
23 19:54 SW 8 G 18 10.00 Mostly Cloudy FEW045 FEW130 BKN200 BKN280 82.9 68 86 81 61% 86 30.08 1018.6
23 18:54 SW 10 10.00 Mostly Cloudy FEW042 BKN220 BKN280 84.9 66 53% 87 30.07 1018.2
23 17:54 S 7 10.00 Mostly Cloudy SCT042 BKN230 BKN280 84 66 55% 86 30.05 1017.5
23 16:54 NW 3 10.00 Mostly Cloudy SCT038 BKN260 84.9 66 53% 87 30.05 1017.6
23 15:54 W 10 10.00 Mostly Cloudy BKN038 BKN260 84 66.9 57% 87 30.05 1017.4
23 14:54 NW 9 10.00 Mostly Cloudy BKN036 BKN260 82 66 58% 84 30.06 1017.7
23 13:54 W 12 10.00 Mostly Cloudy BKN032 BKN260 82 66.9 82.9 75.9 60% 85 30.05 1017.7
23 12:54 W 14 G 17 10.00 Mostly Cloudy SCT036 BKN250 81 66.9 62% 83 30.04 1017.3
23 11:54 W 9 10.00 Mostly Cloudy SCT036 BKN250 81 66.9 62% 83 30.04 1017.1
23 10:54 W 14 10.00 Mostly Cloudy BKN028 BKN250 79 66.9 67% 81 30.04 1017.2
23 09:54 W 9 10.00 Mostly Cloudy BKN021 BKN250 77 69.1 77% 79 30.02 1016.6
23 08:54 W 10 G 18 10.00 Overcast BKN022 OVC250 75.9 70 82% 77 30.01 1016.3
23 07:54 W 10 10.00 Mostly Cloudy BKN020 BKN250 75.9 71.1 75.9 73 85% 76 29.99 1015.6 0.05
23 06:54 W 9 10.00 Overcast OVC017 75 71.1 88% 75 29.98 1015.0
23 05:54 SW 3 10.00 Overcast OVC013 73.9 72 94% 29.96 1014.6
23 04:54 S 3 10.00 Overcast OVC013 73.9 72 94% 29.95 1014.1 0.05
23 03:54 Calm 10.00 Overcast OVC014 73 70 90% 29.95 1014.0 0.02
23 02:54 E 3 10.00 Light Rain OVC019 73.9 70 88% 29.96 1014.4 0.03
23 01:54 SE 3 10.00 Light Rain OVC019 73.9 69.1 75.9 73 85% 29.97 1014.8
23 00:54 Calm 10.00 Light Rain BKN019 OVC033 75 68 79% 76 29.98 1015.0
22 23:54 Calm 10.00 Overcast BKN023 OVC035 73.9 68 82% 29.97 1014.9
22 22:54 NE 3 10.00 Overcast OVC028 73.9 66.9 79% 29.99 1015.4
22 21:54 E 3 10.00 Overcast BKN035 OVC065 75 66.9 76% 76 29.99 1015.6
22 20:54 SE 3 10.00 Overcast FEW025 BKN045 OVC085 73.9 69.1 85% 29.99 1015.6
22 19:54 S 5 10.00 Mostly Cloudy FEW025 BKN045 BKN085 BKN140 75.9 70 84 73 82% 77 29.99 1015.5 0.18
22 18:54 SE 3 10.00 Overcast FEW021 SCT032 BKN070 OVC130 75 70 84% 75 30 1015.8 0.18
22 17:54 SE 6 10.00 Overcast FEW020 BKN029 BKN070 OVC130 80.1 71.1 74% 84 29.99 1015.4
22 16:54 S 5 10.00 Overcast FEW028 SCT045 SCT070 BKN130 OVC180 80.1 70 71% 83 30.01 1016.0
Date Time (edt) Wind (mph) Vis. (mi.) Weather Sky Cond. Air Dwpt Max. Min. Relative Humidity Wind Chill (°F) Heat Index (°F) altimeter (in) sea level (mb) 1 hr 3 hr 6 hr
6 hour
Temperature (ºF) Pressure Precipitation (in)